Regional Weather Roundup
Issued by NWS

Home | Current Version | Previous Version | Text Only | Print | Product List | Glossary On
Versions: 1 2 3 4 5 6 7 8 9 10 11 12 13 14 15 16 17 18 19 20 21 22 23 24 25 26 27 28 29 30 31 32 33 34 35 36 37 38 39 40 41 42 43 44 45 46 47 48 49 50
000
ASCA44 KEWX 311020
RWRMX

LATIN AMERICA AND CARIBBEAN REGIONAL WEATHER ROUNDUP
NATIONAL WEATHER SERVICE AUSTIN/SAN ANTONIO TX
500 AM CDT TUE MAY 31 2016

NOTE: "FAIR" INDICATED FEW OR NO CLOUDS BELOW 12,000 FEET WITH NO
SIGNIFICANT WEATHER AND/OR OBSTRUCTIONS TO VISIBILITY.

BAJA CALIFORNIA

CITY           SKY/WX    TMP DP  RH WIND       PRES   REMARKS
S.J. DEL CABO    N/A    N/A N/A N/A MISG        N/A
TIJUANA        CLOUDY    61  54  77 CALM      29.90F

NORTHWESTERN MEXICO

CITY           SKY/WX    TMP DP  RH WIND       PRES   REMARKS
HERMOSILLO     CLEAR     68  46  45 CALM      29.82

NORTHEASTERN MEXICO

CITY           SKY/WX    TMP DP  RH WIND       PRES   REMARKS
MONCLOVA         N/A    N/A N/A N/A MISG        N/A
MONTERREY        N/A    N/A N/A N/A MISG        N/A
NUEVO LAREDO   CLOUDY    79  73  83 SE7       29.85
REYNOSA        CLEAR     75  72  88 E5        29.84
CD. VICTORIA     N/A    N/A N/A N/A MISG        N/A

WESTERN MEXICO

CITY           SKY/WX    TMP DP  RH WIND       PRES   REMARKS
AGUASCALIENTES PTCLDY    66  52  59 S12       30.17
COLIMA           N/A    N/A N/A N/A MISG        N/A
DEL BAJIO      PTCLDY    66  57  72 E3        30.22S
GUADALAJARA    CLEAR     66  55  68 CALM      30.11
MAZATLAN       CLEAR     73  72  94 CALM      29.83S
P. VALLARTA    CLOUDY    79  75  89 CALM      29.81F
URUAPAN          N/A    N/A N/A N/A MISG        N/A
ZACATECAS      CLEAR     63  46  55 SW9       30.19

CENTRAL MEXICO

CITY           SKY/WX    TMP DP  RH WIND       PRES   REMARKS
CUERNAVACA       N/A    N/A N/A N/A MISG        N/A
MEXICO CITY    PTCLDY    59  50  72 SW2       30.28F
MORELIA        MOCLDY    63  57  82 NW5       30.19
POZA RICA        N/A    N/A N/A N/A MISG        N/A
PUEBLA         CLEAR     52  48  87 N5        30.28
QUERETARO      MOCLDY    63  55  77 N5        30.25R
S. LUIS POTOSI PTCLDY    61  57  88 E7        30.16S
TOLUCA         MOCLDY    52  48  87 CALM      30.36S

SOUTHERN MEXICO

CITY           SKY/WX    TMP DP  RH WIND       PRES   REMARKS
ACAPULCO       CLOUDY    82  68  61 MISG      29.77F
B. DE HUATULCO   N/A    N/A N/A N/A MISG        N/A
P. ESCONDIDO     N/A    N/A N/A N/A MISG        N/A
VERACRUZ         N/A    N/A N/A N/A MISG        N/A

YUCATAN PENINSULA

CITY           SKY/WX    TMP DP  RH WIND       PRES   REMARKS
CAMPECHE       PTCLDY    79  72  78 E7        29.84
CANCUN         MOCLDY    77  73  88 NE2       29.88S
CHETUMAL         N/A    N/A N/A N/A MISG        N/A
CD. DEL CARMEN   N/A    N/A N/A N/A MISG        N/A
COZUMEL        PTCLDY    72  72 100 CALM      29.88R
MERIDA         CLEAR     77  72  83 E7        29.87F
MINATITLAN     MOCLDY    81  73  78 CALM      29.83
TAPACHULA      CLOUDY    77  73  88 NE7       29.78S
VILLAHERMOSA   MOCLDY    79  77  94 CALM      29.85

CENTRAL AMERICA

CITY           SKY/WX    TMP DP  RH WIND       PRES   REMARKS
MANAGUA        MOSUNNY   77  75  94 SE5       29.80S

CARIBBEAN

CITY           SKY/WX    TMP DP  RH WIND       PRES   REMARKS
ARUBA          PTCLDY    82  75  78 E17       29.83S
CURACAO        MOCLDY    82  75  78 E12       29.86R
KINGSTON       PTCLDY    81  73  78 E5        29.86R
NASSAU         PTCLDY    75  70  83 CALM      29.93S THUNDER
SAN JUAN       MOCLDY    79  77  94 E7        29.95R
SANTO DOMINGO  PTCLDY    72  72 100 CALM      29.92R THUNDER
ST. CROIX      MOCLDY    79  73  83 E9        29.95R
ST. KITTS      PTCLDY    81  73  78 E15       29.94
ST. MAARTEN    PTCLDY    81  75  83 E14       29.94S
ST. THOMAS     PTCLDY    82  75  78 E12       29.95R

$$





USA.gov is the U.S. government's official web portal to all federal, state and local government web resources and services.